Location: Grantham
(50.0698°N, 112.0083°W)
Time: 01:48:07
(UTC+00:00)

ISS - Pass Details

Date: 08 December 2021
Orbit: 413 x 422 km, 51.6° (Epoch: 24 January)

Event Time Altitude Azimuth Distance (km) Brightness Sun altitude
Rises 01:25:38 0° 282° (WNW) 2,384 1.2 -18.1°
Reaches altitude 10° 01:28:28 10° 256° (WSW) 1,511 0.3 -18.6°
Maximum altitude 01:30:20 14° 223° (SW) 1,278 -0.6 -18.9°
Drops below altitude 10° 01:32:12 10° 189° (S) 1,502 -0.7 -19.2°
Enters shadow 01:35:10 - 162° (SSE) 2,414 0.1 -19.6°
